Waarnemingen

Advertentie
Mijn weer
Guernsey, Groot Brittannië (3894): temperatuur & dauwpunt: 18.01.2018 03:00:00 - 24.01.2018 03:00:00 (GMT)Guernsey, Groot Brittannië (3894): windsnelheid & windstoten: 18.01.2018 03:00:00 - 24.01.2018 03:00:00 (GMT)Guernsey, Groot Brittannië (3894): windrichting: 18.01.2018 03:00:00 - 24.01.2018 03:00:00 (GMT)Guernsey, Groot Brittannië (3894): luchtdruk: 18.01.2018 03:00:00 - 24.01.2018 03:00:00 (GMT)Guernsey, Groot Brittannië (3894): zicht: 18.01.2018 03:00:00 - 24.01.2018 03:00:00 (GMT)Guernsey, Groot Brittannië (3894): neerslag: 18.01.2018 03:00:00 - 24.01.2018 03:00:00 (GMT)
Datum & Tijd tt [°C] td [°C] ff [km/u] ff [kn] fx [km/u] fx [kn] dd ppp [hPa] vv [km] rr [mm]
24.01.2018 03:00:00 11,6 11,0 28 15 - - ZZW 1015,2 15 -
24.01.2018 02:00:00 11,3 10,9 24 13 - - ZZW 1016,0 20 -
24.01.2018 01:00:00 11,1 10,6 22 12 - - ZZW 1017,2 8 -
24.01.2018 00:00:00 11,2 11,0 26 14 - - ZZW 1018,2 12 -
23.01.2018 23:00:00 11,2 11,1 29 16 46 25 ZW 1018,4 2,5 -
23.01.2018 22:00:00 11,3 11,2 31 17 46 25 ZW 1018,8 3,0 -
23.01.2018 21:00:00 11,4 11,4 28 15 - - ZW 1018,9 0,5 -
23.01.2018 20:00:00 11,2 11,0 28 15 48 26 ZW 1018,9 4,0 -
23.01.2018 19:00:00 11,4 11,4 29 16 - - ZW 1019,1 4,0 -
23.01.2018 18:00:00 11,4 11,3 31 17 - - ZW 1018,8 8 -
23.01.2018 17:00:00 11,3 11,2 29 16 - - ZW 1018,6 6 -
23.01.2018 16:00:00 11,4 11,4 31 17 48 26 ZW 1018,4 0,9 -
23.01.2018 15:00:00 11,6 11,5 31 17 48 26 ZW 1018,2 0,2 -
23.01.2018 14:00:00 11,3 11,3 28 15 - - ZZW 1018,3 0,1 -
23.01.2018 13:00:00 11,3 11,3 31 17 - - ZW 1018,6 0,1 -
23.01.2018 12:00:00 11,3 11,3 34 18 - - ZW 1019,0 0,1 -
23.01.2018 11:00:00 11,0 10,9 26 14 - - ZZW 1019,6 0,1 -
23.01.2018 10:00:00 11,3 10,8 26 14 - - ZZW 1019,4 3,5 -
23.01.2018 09:00:00 10,9 10,7 26 14 - - ZZW 1019,3 10 -
23.01.2018 08:00:00 10,6 10,4 24 13 - - ZZW 1019,1 10 -
23.01.2018 07:00:00 10,5 10,1 24 13 - - ZZW 1019,3 8 -
23.01.2018 06:00:00 9,8 9,3 26 14 - - ZZW 1019,4 10 -
23.01.2018 05:00:00 9,5 8,7 26 14 - - Z 1019,8 10 -
23.01.2018 04:00:00 9,2 8,3 24 13 - - Z 1020,2 10 -
23.01.2018 03:00:00 8,8 7,9 28 15 - - Z 1020,8 15 -
23.01.2018 02:00:00 - - - - - - - - - -
23.01.2018 01:00:00 8,9 8,3 21 11 - - ZZW 1021,9 15 -
23.01.2018 00:00:00 9,2 8,6 21 11 - - ZW 1022,5 15 0,0
22.01.2018 23:00:00 9,7 9,3 21 11 - - ZW 1022,3 12 -
22.01.2018 22:00:00 9,8 8,8 22 12 - - WZW 1022,3 25 -
22.01.2018 21:00:00 9,3 7,3 16 9 - - W 1022,3 10 -
22.01.2018 20:00:00 8,8 6,8 15 8 - - W 1022,1 10 -
22.01.2018 19:00:00 9,8 6,1 21 11 - - W 1021,5 10 -
22.01.2018 18:00:00 9,9 5,5 26 14 - - W 1021,4 10 -
22.01.2018 17:00:00 9,9 6,2 22 12 - - WNW 1020,7 10 -
22.01.2018 16:00:00 10,1 7,7 26 14 - - W 1019,9 10 -
22.01.2018 15:00:00 10,6 8,6 26 14 - - WNW 1019,0 10 -
22.01.2018 14:00:00 11,0 7,8 22 12 - - WNW 1018,1 10 -
22.01.2018 13:00:00 10,6 8,2 26 14 - - WNW 1017,8 10 -
22.01.2018 12:00:00 10,5 8,2 26 14 - - WNW 1017,0 10 -
22.01.2018 11:00:00 10,0 7,8 21 11 - - NW 1015,9 10 -
22.01.2018 10:00:00 9,3 8,6 26 14 - - NNW 1014,2 10 -
22.01.2018 09:00:00 9,2 8,8 28 15 61 33 N 1013,3 10 -
22.01.2018 08:00:00 11,2 11,0 37 20 57 31 WZW 1008,2 4,0 -
22.01.2018 07:00:00 11,2 11,1 44 24 67 36 WZW 1007,9 7 -
22.01.2018 06:00:00 11,1 11,1 42 23 67 36 WZW 1008,1 1,8 -
22.01.2018 05:00:00 11,3 11,3 44 24 63 34 WZW 1008,9 1,0 -
22.01.2018 04:00:00 11,2 11,2 35 19 50 27 WZW 1010,0 0,6 -
22.01.2018 03:00:00 11,1 11,1 35 19 52 28 WZW 1010,8 0,6 -
22.01.2018 02:00:00 11,0 11,0 31 17 48 26 WZW 1011,2 0,2 -
22.01.2018 01:00:00 11,2 11,2 37 20 54 29 WZW 1012,0 0,3 -
22.01.2018 00:00:00 11,3 11,3 39 21 52 28 W 1012,5 0,2 -
21.01.2018 23:00:00 11,3 11,3 37 20 59 32 W 1012,7 0,2 -
21.01.2018 22:00:00 11,3 11,3 41 22 57 31 W 1012,7 0,7 -
21.01.2018 21:00:00 11,3 11,3 42 23 65 35 W 1012,5 1,6 -
21.01.2018 20:00:00 11,3 11,3 42 23 63 34 W 1012,8 2,2 -
21.01.2018 19:00:00 11,1 11,0 44 24 61 33 WZW 1012,7 2,8 -
21.01.2018 18:00:00 10,9 10,8 42 23 59 32 WZW 1012,8 1,3 -
21.01.2018 17:00:00 10,8 10,7 44 24 57 31 WZW 1013,0 0,5 -
21.01.2018 16:00:00 10,9 10,6 42 23 63 34 W 1013,1 2,8 -
21.01.2018 15:00:00 11,0 10,7 42 23 57 31 W 1013,6 8 -
21.01.2018 14:00:00 10,9 10,8 37 20 57 31 WZW 1013,4 8 -
21.01.2018 13:00:00 11,0 10,9 41 22 57 31 W 1014,0 7 -
21.01.2018 12:00:00 10,9 10,8 39 21 54 29 W 1014,2 2,0 -
21.01.2018 11:00:00 10,8 10,8 41 22 57 31 W 1014,7 3,0 -
21.01.2018 10:00:00 10,8 10,8 37 20 52 28 W 1014,3 2,0 -
21.01.2018 09:00:00 10,7 10,6 35 19 52 28 W 1014,1 0,4 -
21.01.2018 08:00:00 8,9 8,8 18 10 - - ZZW 1014,6 0,2 -
21.01.2018 07:00:00 8,7 8,4 15 8 - - ZZW 1014,5 0,4 -
21.01.2018 06:00:00 8,1 7,7 8 4 - - ZW 1015,4 3,3 -
21.01.2018 05:00:00 8,2 7,7 8 4 - - WNW 1015,4 4,2 -
21.01.2018 04:00:00 8,6 7,7 8 4 - - W 1014,7 2,8 -
21.01.2018 03:00:00 9,2 7,3 9 5 - - NW 1015,2 15 -
21.01.2018 02:00:00 9,2 6,7 15 8 - - WNW 1014,5 25 -
21.01.2018 01:00:00 9,3 6,4 16 9 - - NW 1014,0 25 -
21.01.2018 00:00:00 9,2 6,1 24 13 46 25 NW 1012,9 17 -
20.01.2018 23:00:00 9,5 6,0 29 16 52 28 WNW 1011,9 17 -
20.01.2018 22:00:00 9,6 6,8 29 16 48 26 WNW 1011,1 20 -
20.01.2018 21:00:00 9,6 6,4 29 16 50 27 WNW 1009,8 10 -
20.01.2018 20:00:00 10,1 6,2 35 19 59 32 WNW 1008,1 10 -
20.01.2018 19:00:00 10,0 6,2 39 21 55 30 WNW 1007,0 10 -
20.01.2018 18:00:00 10,8 8,4 34 18 59 32 WNW 1005,6 10 -
20.01.2018 17:00:00 10,9 9,3 39 21 67 36 WNW 1004,4 10 -
20.01.2018 16:00:00 11,1 10,4 44 24 63 34 W 1003,2 10 -
20.01.2018 15:00:00 11,1 10,9 44 24 63 34 W 1002,5 4,5 -
20.01.2018 14:00:00 11,0 10,6 39 21 61 33 W 1002,0 5 -
20.01.2018 13:00:00 11,0 10,3 41 22 63 34 W 1002,3 9 -
20.01.2018 12:00:00 11,0 10,4 39 21 67 36 W 1002,2 10 -
20.01.2018 11:00:00 11,0 10,2 37 20 63 34 W 1001,7 10 -
20.01.2018 10:00:00 11,0 10,5 42 23 61 33 W 1000,5 10 -
20.01.2018 09:00:00 11,0 10,5 42 23 70 38 W 999,8 10 -
20.01.2018 08:00:00 11,0 10,8 48 26 70 38 W 999,1 10 -
20.01.2018 07:00:00 11,0 10,9 42 23 63 34 W 998,8 2,5 -
20.01.2018 06:00:00 9,6 9,1 18 10 - - ZW 999,3 2,0 -
20.01.2018 05:00:00 7,3 6,9 29 16 - - Z 1001,9 4,5 -
20.01.2018 04:00:00 7,0 6,4 26 14 46 25 Z 1004,4 6 -
20.01.2018 03:00:00 7,7 7,0 26 14 - - ZZW 1008,3 8 -
20.01.2018 02:00:00 7,4 6,1 24 13 - - WZW 1010,1 12 -
20.01.2018 01:00:00 7,3 6,0 24 13 - - WZW 1011,6 15 -
20.01.2018 00:00:00 7,6 5,0 22 12 - - W 1012,7 20 -
19.01.2018 23:00:00 7,5 5,3 22 12 - - W 1013,3 30 -
19.01.2018 22:00:00 6,2 3,9 22 12 - - W 1013,9 20 -
19.01.2018 21:00:00 7,8 2,6 29 16 - - W 1014,2 10 -
19.01.2018 20:00:00 7,2 2,9 29 16 - - W 1014,1 10 -
19.01.2018 19:00:00 6,7 2,6 29 16 - - W 1014,2 10 -
19.01.2018 18:00:00 6,0 3,5 24 13 54 29 W 1014,6 10 -
19.01.2018 17:00:00 6,8 3,5 29 16 - - W 1014,4 10 -
19.01.2018 16:00:00 7,2 2,6 29 16 52 28 W 1014,0 10 -
19.01.2018 15:00:00 6,6 4,3 22 12 52 28 W 1014,3 10 -
19.01.2018 14:00:00 7,3 3,1 28 15 48 26 WNW 1014,0 10 -
19.01.2018 13:00:00 8,0 -0,5 28 15 48 26 W 1014,1 10 -
19.01.2018 12:00:00 8,2 0,4 29 16 - - W 1014,7 10 0,0
19.01.2018 11:00:00 8,0 0,6 28 15 - - WNW 1014,8 10 -
19.01.2018 10:00:00 7,5 0,3 24 13 - - WNW 1014,2 10 -
19.01.2018 09:00:00 6,7 0,2 26 14 - - WNW 1013,7 10 -
19.01.2018 08:00:00 6,4 -0,1 24 13 - - WNW 1013,3 10 -
19.01.2018 07:00:00 6,5 1,5 29 16 46 25 WNW 1012,8 10 -
19.01.2018 06:00:00 6,7 1,4 35 19 54 29 W 1012,0 10 -
19.01.2018 05:00:00 7,4 1,9 31 17 50 27 W 1011,7 10 -
19.01.2018 04:00:00 7,6 1,9 31 17 48 26 W 1012,0 10 -
19.01.2018 03:00:00 7,6 2,2 34 18 46 25 W 1011,7 35 -
19.01.2018 02:00:00 5,7 3,0 13 7 59 32 WNW 1012,1 35 -
19.01.2018 01:00:00 6,8 2,9 29 16 46 25 W 1012,1 35 -
19.01.2018 00:00:00 6,6 2,5 31 17 55 30 W 1012,3 35 -
18.01.2018 23:00:00 7,6 1,1 34 18 48 26 W 1011,6 35 -
18.01.2018 22:00:00 7,3 1,5 31 17 48 26 WNW 1011,6 35 -
18.01.2018 21:00:00 7,4 2,5 34 18 61 33 WNW 1011,0 10 -
18.01.2018 20:00:00 7,4 3,4 28 15 52 28 WNW 1010,8 10 -
18.01.2018 19:00:00 7,9 2,8 29 16 57 31 WNW 1010,1 10 -
18.01.2018 18:00:00 7,7 4,0 35 19 54 29 WNW 1009,4 10 -
18.01.2018 17:00:00 8,1 4,9 34 18 55 30 WNW 1008,8 10 -
18.01.2018 16:00:00 9,0 5,5 35 19 65 35 W 1008,0 10 -
18.01.2018 15:00:00 9,7 6,4 35 19 54 29 W 1007,6 10 -
18.01.2018 14:00:00 10,0 6,6 28 15 46 25 W 1007,4 10 -
18.01.2018 13:00:00 10,1 5,4 35 19 50 27 W 1007,5 10 -
18.01.2018 12:00:00 10,2 4,7 35 19 50 27 W 1007,9 10 -
18.01.2018 11:00:00 10,0 4,8 37 20 - - WNW 1008,1 10 -
18.01.2018 10:00:00 9,9 5,2 34 18 57 31 W 1007,7 10 -
18.01.2018 09:00:00 9,8 5,4 39 21 - - W 1007,1 10 -
18.01.2018 08:00:00 9,8 6,2 39 21 61 33 WNW 1006,1 10 -
18.01.2018 07:00:00 10,4 9,2 37 20 72 39 WNW 1005,8 8 -
18.01.2018 06:00:00 10,9 10,4 52 28 72 39 W 1005,1 5 -
18.01.2018 05:00:00 10,8 10,4 50 27 - - W 1004,7 4,0 -
18.01.2018 04:00:00 10,7 10,3 50 27 74 40 WZW 1004,9 4,0 -
18.01.2018 03:00:00 10,5 10,2 59 32 85 46 WZW 1005,5 3,5 -

tt = temperatuur
td = dauwpunt
ff = windsnelheid
fx = windstoten
dd = windrichting
ppp = luchtdruk
vv = zicht
rr = neerslag

Weerstations in de omgeving